FW8095 Weather Reports


Display with metric or nautical units.
time (UTC)temp
F
wind
direction
speed
MPH
gust
MPH
rain 1hr
in
rain 24hr
in
rain mn
in
humidity
%
barometer
mb
20210421153225 46 58 4.0 12.0 0.00 0.00 0.00 66 1022.7
20210421152908 45 121 3.0 11.0 0.00 0.00 0.00 68 1022.6
20210421143234 46 40 1.0 4.0 0.00 0.00 0.00 71 1021.7
20210421134542 45 238 2.0 6.0 0.00 0.00 0.00 73 1020.9
20210421133211 45 55 1.0 9.0 0.00 0.00 0.00 75 1020.6
20210421131522 45 77 2.0 7.0 0.00 0.00 0.00 76 1020.4
20210421130735 45 281 2.0 7.0 0.00 0.00 0.00 74 1020.1
20210421123624 45 66 1.0 7.0 0.00 0.00 0.00 75 1019.8
20210421122224 45 77 2.0 8.0 0.00 0.00 0.00 76 1019.5
20210421114542 45 48 2.0 7.0 0.00 0.00 0.00 76 1018.9
20210421113045 45 88 1.0 5.0 0.00 0.00 0.00 75 1018.7
20210421111718 45 51 0.0 5.0 0.00 0.00 0.00 75 1018.7
20210421104558 46 261 1.0 7.0 0.00 0.00 0.00 74 1018.1
20210421103105 46 56 0.0 4.0 0.00 0.00 0.00 74 1018.1
20210421101558 47 264 2.0 11.0 0.00 0.00 0.00 73 1017.9
20210421094649 48 99 3.0 17.0 0.00 0.00 0.00 72 1017.5
20210421093057 49 91 1.0 7.0 0.00 0.00 0.00 74 1017.3
20210421091552 50 75 1.0 12.0 0.00 0.00 0.00 74 1017.0
20210421084638 51 266 2.0 5.0 0.00 0.00 0.00 76 1016.1
20210421083058 52 252 1.0 3.0 0.00 0.00 0.00 78 1015.9
20210421081629 53 261 0.0 6.0 0.00 0.00 0.00 77 1015.6
20210421074540 53 139 1.0 4.0 0.00 0.00 0.00 77 1015.5
20210421073051 52 0 0.0 2.0 0.00 0.00 0.00 82 1015.2
20210421071622 53 0 0.0 1.0 0.00 0.00 0.00 81 1015.0
20210421064616 54 0 0.0 0.0 0.00 0.00 0.00 78 1014.3
20210421063102 53 0 0.0 0.0 0.00 0.00 0.00 78 1014.5
20210421061530 53 0 0.0 0.0 0.00 0.00 0.00 79 1014.5
20210421054620 53 0 0.0 0.0 0.00 0.00 0.00 77 1014.9
20210421053143 54 0 0.0 0.0 0.00 0.00 0.00 75 1015.0
20210421051612 55 0 0.0 0.0 0.00 0.00 0.00 74 1014.9
20210421050044 55 0 0.0 0.0 0.00 0.00 0.00 74 1014.9
20210421044527 55 0 0.0 0.0 0.00 0.00 0.00 72 1014.7
20210421043044 56 0 0.0 0.0 0.00 0.00 0.00 71 1014.9
20210421041534 56 0 0.0 0.0 0.00 0.00 0.00 69 1014.8
20210421040101 57 0 0.0 0.0 0.00 0.00 0.00 68 1014.8
20210421034529 58 0 0.0 0.0 0.00 0.00 0.00 65 1014.7
20210421033025 58 0 0.0 0.0 0.00 0.00 0.00 64 1014.8
20210421031612 59 0 0.0 0.0 0.00 0.00 0.00 64 1014.7
20210421030138 59 0 0.0 0.0 0.00 0.00 0.00 61 1014.7
20210421024613 60 0 0.0 0.0 0.00 0.00 0.00 61 1014.5
20210421023055 60 0 0.0 0.0 0.00 0.00 0.00 60 1014.5
20210421021529 61 0 0.0 0.0 0.00 0.00 0.00 60 1014.6
20210421020128 61 0 0.0 0.0 0.00 0.00 0.00 59 1014.4
20210421014540 61 0 0.0 0.0 0.00 0.00 0.00 59 1014.2
20210421013033 62 0 0.0 0.0 0.00 0.00 0.00 57 1014.0
20210421011554 63 0 0.0 0.0 0.00 0.00 0.00 55 1013.8
20210421010042 63 0 0.0 0.0 0.00 0.00 0.00 53 1013.6
20210421004547 64 0 0.0 0.0 0.00 0.00 0.00 52 1013.5
20210421003051 64 0 0.0 0.0 0.00 0.00 0.00 52 1013.4
20210421001648 65 0 0.0 0.0 0.00 0.00 0.00 51 1013.1
20210421000035 66 0 0.0 0.0 0.00 0.00 0.00 48 1013.1
20210420234613 68 0 0.0 0.0 0.00 0.00 0.00 47 1012.9
20210420233037 69 0 0.0 2.0 0.00 0.00 0.00 46 1012.9
20210420231522 70 101 0.0 4.0 0.00 0.00 0.00 41 1012.9
20210420230109 72 83 1.0 2.0 0.00 0.00 0.00 35 1013.0
20210420224536 73 100 1.0 2.0 0.00 0.00 0.00 36 1013.0
20210420223032 74 255 0.0 4.0 0.00 0.00 0.00 36 1013.0
20210420221607 74 137 1.0 4.0 0.00 0.00 0.00 35 1012.9
20210420220113 74 248 1.0 3.0 0.00 0.00 0.00 37 1013.0
20210420214551 74 117 1.0 3.0 0.00 0.00 0.00 37 1012.9
20210420213040 74 219 1.0 4.0 0.00 0.00 0.00 37 1012.9
20210420211545 74 250 0.0 2.0 0.00 0.00 0.00 41 1013.0
20210420210141 74 122 0.0 3.0 0.00 0.00 0.00 39 1013.2
20210420204535 75 232 1.0 4.0 0.00 0.00 0.00 38 1013.3
20210420203040 75 233 2.0 5.0 0.00 0.00 0.00 37 1013.5
20210420201551 75 72 0.0 5.0 0.00 0.00 0.00 38 1013.6
20210420200107 76 265 1.0 4.0 0.00 0.00 0.00 35 1013.7
20210420194546 75 244 2.0 6.0 0.00 0.00 0.00 37 1014.0
20210420193050 75 265 1.0 4.0 0.00 0.00 0.00 38 1014.0
20210420191530 76 245 2.0 5.0 0.00 0.00 0.00 36 1014.1
20210420190025 77 293 3.0 7.0 0.00 0.00 0.00 33 1014.4
20210420184625 78 114 1.0 5.0 0.00 0.00 0.00 36 1014.6
20210420183053 78 103 1.0 4.0 0.00 0.00 0.00 37 1014.8
20210420181535 78 267 1.0 4.0 0.00 0.00 0.00 38 1015.0
20210420180121 76 37 2.0 4.0 0.00 0.00 0.00 40 1015.2
20210420174533 75 271 1.0 5.0 0.00 0.00 0.00 42 1015.4
20210420173038 75 307 2.0 6.0 0.00 0.00 0.00 39 1015.5
20210420171534 73 262 2.0 4.0 0.00 0.00 0.00 41 1015.8
20210420170259 74 222 2.0 5.0 0.00 0.00 0.00 42 1015.9
20210420164544 73 302 1.0 5.0 0.00 0.00 0.00 40 1016.0